Location: Chèvreville
(49.1099°N, 2.8495°E)
Time: 21:33:01
(UTC+00:00)

Cosmos 2279 Rocket - Pass Details

Date: 28 January 2023
Orbit: 964 x 978 km, 83.0° (Epoch: 21 March)

Event Time Altitude Azimuth Distance (km) Brightness Sun altitude
Rises 17:22:49 0° 181° (S) 3,638 7.3 -7.5°
Reaches altitude 10° 17:25:19 10° 180° (S) 2,697 6.6 -7.9°
Maximum altitude 17:31:28 76° 96° (E) 1,001 4.0 -8.8°
Drops below altitude 10° 17:37:41 10° 12° (NNE) 2,721 6.1 -9.8°
Sets 17:40:12 0° 11° (N) 3,674 6.7 -10.2°
